Time,TemperatureF,DewpointF,PressureIn,WindDirection,WindDirectionDegrees,WindSpeedMPH,WindSpeedGustMPH,Humidity,HourlyPrecipIn,Conditions,Clouds,dailyrainin,SoftwareType,DateUTC
2013-10-11 00:01:00,52.7,49.8,29.62,NW,315,1.1,1.1,90,0.00,,,0.00,VWS V14.01,2013-10-11 04:01:00,
2013-10-11 00:02:00,52.7,49.8,29.62,NW,315,0.0,0.0,90,0.00,,,0.00,VWS V14.01,2013-10-11 04:02:00,
2013-10-11 00:07:00,52.7,49.8,29.62,South,180,0.0,0.0,90,0.00,,,0.00,VWS V14.01,2013-10-11 04:07:00,
2013-10-11 00:12:00,52.7,49.8,29.62,NNW,338,0.0,0.0,90,0.00,,,0.00,VWS V14.01,2013-10-11 04:12:00,
2013-10-11 00:17:00,52.7,50.2,29.59,North,0,0.0,0.0,91,0.00,,,0.00,VWS V14.01,2013-10-11 04:17:00,
2013-10-11 00:22:00,52.7,50.2,29.59,North,0,2.5,2.5,91,0.00,,,0.00,VWS V14.01,2013-10-11 04:22:00,
2013-10-11 00:27:00,52.7,50.2,29.59,NNE,22,1.6,1.6,91,0.00,,,0.00,VWS V14.01,2013-10-11 04:27:00,
2013-10-11 00:32:00,52.7,50.2,29.59,NNE,22,0.0,0.0,91,0.00,,,0.00,VWS V14.01,2013-10-11 04:32:00,
2013-10-11 00:37:00,52.7,50.2,29.59,East,90,0.0,0.0,91,0.00,,,0.00,VWS V14.01,2013-10-11 04:37:00,
2013-10-11 00:42:00,52.7,50.2,29.59,North,0,1.3,1.3,91,0.00,,,0.00,VWS V14.01,2013-10-11 04:42:00,
2013-10-11 00:47:00,52.7,50.2,29.59,NE,45,3.4,3.4,91,0.00,,,0.00,VWS V14.01,2013-10-11 04:47:00,
2013-10-11 00:52:00,52.9,50.3,29.59,NNE,22,4.5,4.5,91,0.00,,,0.00,VWS V14.01,2013-10-11 04:52:00,
2013-10-11 00:58:00,52.9,50.3,29.59,NNE,22,3.6,3.6,91,0.00,,,0.00,VWS V14.01,2013-10-11 04:58:00,
2013-10-11 01:03:00,52.9,50.3,29.59,NNE,22,5.8,5.8,91,0.00,,,0.00,VWS V14.01,2013-10-11 05:03:00,
2013-10-11 01:08:00,53.1,50.5,29.59,NE,45,1.3,1.3,91,0.00,,,0.00,VWS V14.01,2013-10-11 05:08:00,
2013-10-11 01:13:00,53.1,50.8,29.59,ENE,68,1.3,1.3,92,0.00,,,0.00,VWS V14.01,2013-10-11 05:13:00,
2013-10-11 01:18:00,53.1,50.8,29.59,ENE,68,4.3,4.3,92,0.00,,,0.00,VWS V14.01,2013-10-11 05:18:00,
2013-10-11 01:23:00,53.1,50.8,29.59,NE,45,6.0,6.0,92,0.00,,,0.00,VWS V14.01,2013-10-11 05:23:00,
2013-10-11 01:28:00,53.1,50.8,29.59,NE,45,7.2,7.2,92,0.00,,,0.00,VWS V14.01,2013-10-11 05:28:00,
2013-10-11 01:33:00,53.1,50.8,29.59,NE,45,5.8,5.8,92,0.00,,,0.00,VWS V14.01,2013-10-11 05:33:00,
2013-10-11 01:38:00,53.2,51.0,29.59,ENE,68,4.3,4.3,92,0.00,,,0.00,VWS V14.01,2013-10-11 05:38:00,
2013-10-11 01:43:00,53.2,51.3,29.59,East,90,2.9,2.9,93,0.00,,,0.00,VWS V14.01,2013-10-11 05:43:00,
2013-10-11 01:48:00,53.4,51.5,29.59,East,90,2.7,2.7,93,0.00,,,0.00,VWS V14.01,2013-10-11 05:48:00,
2013-10-11 01:53:00,53.4,51.5,29.59,NE,45,5.4,5.4,93,0.00,,,0.00,VWS V14.01,2013-10-11 05:53:00,
2013-10-11 01:58:00,53.2,51.3,29.59,ENE,68,6.5,6.5,93,0.00,,,0.00,VWS V14.01,2013-10-11 05:58:00,
2013-10-11 02:03:00,53.4,51.5,29.56,NE,45,6.3,6.3,93,0.00,,,0.00,VWS V14.01,2013-10-11 06:03:00,
2013-10-11 02:08:00,53.2,51.3,29.56,ENE,68,4.9,4.9,93,0.00,,,0.00,VWS V14.01,2013-10-11 06:08:00,
2013-10-11 02:13:00,53.4,51.5,29.56,NE,45,7.2,7.2,93,0.00,,,0.00,VWS V14.01,2013-10-11 06:13:00,
2013-10-11 02:18:00,53.4,51.5,29.56,ENE,68,3.8,3.8,93,0.00,,,0.00,VWS V14.01,2013-10-11 06:18:00,
2013-10-11 02:23:00,53.4,51.5,29.56,ENE,68,6.3,6.3,93,0.00,,,0.00,VWS V14.01,2013-10-11 06:23:00,
2013-10-11 02:28:00,53.4,51.5,29.56,ENE,68,2.0,2.0,93,0.00,,,0.00,VWS V14.01,2013-10-11 06:28:00,
2013-10-11 02:34:00,53.4,51.7,29.56,NE,45,2.5,2.5,94,0.00,,,0.00,VWS V14.01,2013-10-11 06:34:00,
2013-10-11 02:39:00,53.6,51.6,29.56,ENE,68,3.1,3.1,93,0.00,,,0.00,VWS V14.01,2013-10-11 06:39:00,
2013-10-11 02:44:00,53.6,51.9,29.53,NNE,22,1.6,1.6,94,0.00,,,0.00,VWS V14.01,2013-10-11 06:44:00,
2013-10-11 02:49:00,53.6,51.9,29.53,NNE,22,0.0,0.0,94,0.00,,,0.00,VWS V14.01,2013-10-11 06:49:00,
2013-10-11 02:54:00,53.6,51.9,29.53,SW,225,2.7,2.7,94,0.00,,,0.00,VWS V14.01,2013-10-11 06:54:00,
2013-10-11 02:59:00,53.6,51.9,29.56,SW,225,1.1,1.1,94,0.00,,,0.00,VWS V14.01,2013-10-11 06:59:00,
2013-10-11 03:04:00,53.6,51.9,29.56,NNE,22,3.8,3.8,94,0.00,,,0.00,VWS V14.01,2013-10-11 07:04:00,
2013-10-11 03:09:00,53.6,51.9,29.56,NE,45,5.4,5.4,94,0.00,,,0.00,VWS V14.01,2013-10-11 07:09:00,
2013-10-11 03:14:00,53.8,52.1,29.56,NNE,22,2.0,2.0,94,0.00,,,0.00,VWS V14.01,2013-10-11 07:14:00,
2013-10-11 03:19:00,53.8,52.1,29.56,WSW,248,2.5,2.5,94,0.00,,,0.00,VWS V14.01,2013-10-11 07:19:00,
2013-10-11 03:24:00,53.6,51.9,29.56,WSW,248,2.2,2.2,94,0.00,,,0.00,VWS V14.01,2013-10-11 07:24:00,
2013-10-11 03:29:00,53.6,51.9,29.56,NNW,338,2.2,2.2,94,0.00,,,0.00,VWS V14.01,2013-10-11 07:29:00,
2013-10-11 03:34:00,53.8,52.1,29.56,NNE,22,5.8,5.8,94,0.00,,,0.00,VWS V14.01,2013-10-11 07:34:00,
2013-10-11 03:39:00,53.8,52.1,29.56,ENE,68,5.8,5.8,94,0.00,,,0.00,VWS V14.01,2013-10-11 07:39:00,
2013-10-11 03:44:00,53.8,52.1,29.53,ENE,68,3.4,3.4,94,0.00,,,0.00,VWS V14.01,2013-10-11 07:44:00,
2013-10-11 03:50:00,53.8,52.1,29.53,ENE,68,5.6,5.6,94,0.00,,,0.00,VWS V14.01,2013-10-11 07:50:00,
2013-10-11 03:55:00,53.8,52.1,29.53,NE,45,3.4,3.4,94,0.00,,,0.00,VWS V14.01,2013-10-11 07:55:00,
2013-10-11 04:00:00,54.0,52.3,29.56,NE,45,4.9,4.9,94,0.00,,,0.00,VWS V14.01,2013-10-11 08:00:00,
2013-10-11 04:05:00,54.0,52.3,29.56,NE,45,4.0,4.0,94,0.00,,,0.00,VWS V14.01,2013-10-11 08:05:00,
2013-10-11 04:10:00,54.0,52.3,29.56,NE,45,4.0,4.0,94,0.00,,,0.00,VWS V14.01,2013-10-11 08:10:00,
2013-10-11 04:15:00,54.0,52.3,29.56,NE,45,3.4,3.4,94,0.00,,,0.00,VWS V14.01,2013-10-11 08:15:00,
2013-10-11 04:20:00,54.0,52.3,29.56,NNE,22,5.8,5.8,94,0.00,,,0.00,VWS V14.01,2013-10-11 08:20:00,
2013-10-11 04:25:00,54.0,52.3,29.56,NNE,22,6.3,6.3,94,0.00,,,0.00,VWS V14.01,2013-10-11 08:25:00,
2013-10-11 04:30:00,54.0,52.3,29.56,NNE,22,4.9,4.9,94,0.00,,,0.00,VWS V14.01,2013-10-11 08:30:00,
2013-10-11 04:35:00,54.0,52.3,29.56,NE,45,4.0,4.0,94,0.00,,,0.00,VWS V14.01,2013-10-11 08:35:00,
2013-10-11 04:40:00,54.1,52.5,29.56,NE,45,3.1,3.1,94,0.00,,,0.00,VWS V14.01,2013-10-11 08:40:00,
2013-10-11 04:45:00,54.1,52.5,29.56,NNE,22,3.6,3.6,94,0.00,,,0.00,VWS V14.01,2013-10-11 08:45:00,
2013-10-11 04:50:00,54.1,52.5,29.56,NE,45,3.6,3.6,94,0.00,,,0.00,VWS V14.01,2013-10-11 08:50:00,
2013-10-11 04:56:00,54.3,52.6,29.56,NE,45,2.7,2.7,94,0.00,,,0.00,VWS V14.01,2013-10-11 08:56:00,
2013-10-11 05:01:00,54.3,52.6,29.56,NE,45,4.3,4.3,94,0.00,,,0.00,VWS V14.01,2013-10-11 09:01:00,
2013-10-11 05:06:00,54.3,52.6,29.56,NE,45,1.6,1.6,94,0.00,,,0.00,VWS V14.01,2013-10-11 09:06:00,
2013-10-11 05:11:00,54.3,52.6,29.56,NE,45,3.6,3.6,94,0.00,,,0.00,VWS V14.01,2013-10-11 09:11:00,
2013-10-11 05:16:00,54.3,52.6,29.56,NE,45,3.6,3.6,94,0.00,,,0.00,VWS V14.01,2013-10-11 09:16:00,
2013-10-11 05:21:00,54.5,52.8,29.56,ENE,68,3.6,3.6,94,0.00,,,0.00,VWS V14.01,2013-10-11 09:21:00,
2013-10-11 05:26:00,54.5,52.8,29.56,ENE,68,3.1,3.1,94,0.00,,,0.00,VWS V14.01,2013-10-11 09:26:00,
2013-10-11 05:31:00,54.5,53.1,29.56,East,90,1.1,1.1,95,0.00,,,0.00,VWS V14.01,2013-10-11 09:31:00,
2013-10-11 05:36:00,54.5,52.8,29.56,ENE,68,3.1,3.1,94,0.00,,,0.00,VWS V14.01,2013-10-11 09:36:00,
2013-10-11 05:41:00,54.5,52.8,29.56,ENE,68,2.5,2.5,94,0.00,,,0.00,VWS V14.01,2013-10-11 09:41:00,
2013-10-11 05:46:00,54.5,52.8,29.56,NE,45,4.0,4.0,94,0.00,,,0.00,VWS V14.01,2013-10-11 09:46:00,
2013-10-11 05:51:00,54.5,52.8,29.56,NE,45,4.3,4.3,94,0.00,,,0.00,VWS V14.01,2013-10-11 09:51:00,
2013-10-11 05:56:00,54.3,52.6,29.56,ENE,68,5.8,5.8,94,0.00,,,0.00,VWS V14.01,2013-10-11 09:56:00,
2013-10-11 06:01:00,54.1,52.2,29.56,NE,45,6.5,6.5,93,0.00,,,0.00,VWS V14.01,2013-10-11 10:01:00,
2013-10-11 06:07:00,54.1,52.2,29.56,ENE,68,4.7,4.7,93,0.00,,,0.00,VWS V14.01,2013-10-11 10:07:00,
2013-10-11 06:12:00,54.0,52.0,29.56,ENE,68,3.4,3.4,93,0.00,,,0.00,VWS V14.01,2013-10-11 10:12:00,
2013-10-11 06:17:00,54.0,52.0,29.53,ENE,68,1.3,1.3,93,0.00,,,0.00,VWS V14.01,2013-10-11 10:17:00,
2013-10-11 06:22:00,54.0,52.0,29.53,NE,45,2.9,2.9,93,0.00,,,0.00,VWS V14.01,2013-10-11 10:22:00,
2013-10-11 06:27:00,54.0,52.0,29.53,NE,45,4.0,4.0,93,0.00,,,0.00,VWS V14.01,2013-10-11 10:27:00,
2013-10-11 06:32:00,54.0,52.0,29.56,NE,45,1.3,1.3,93,0.00,,,0.00,VWS V14.01,2013-10-11 10:32:00,
2013-10-11 06:37:00,54.0,52.0,29.56,ENE,68,2.5,2.5,93,0.00,,,0.00,VWS V14.01,2013-10-11 10:37:00,
2013-10-11 06:42:00,54.0,52.3,29.56,East,90,1.6,1.6,94,0.00,,,0.00,VWS V14.01,2013-10-11 10:42:00,
2013-10-11 06:47:00,54.0,52.3,29.56,ENE,68,2.7,2.7,94,0.00,,,0.00,VWS V14.01,2013-10-11 10:47:00,
2013-10-11 06:52:00,54.0,52.0,29.56,NE,45,2.9,2.9,93,0.00,,,0.00,VWS V14.01,2013-10-11 10:52:00,
2013-10-11 06:57:00,54.0,52.0,29.56,ENE,68,3.1,3.1,93,0.00,,,0.00,VWS V14.01,2013-10-11 10:57:00,
2013-10-11 07:02:00,54.0,52.3,29.56,ENE,68,1.6,1.6,94,0.00,,,0.00,VWS V14.01,2013-10-11 11:02:00,
2013-10-11 07:07:00,54.0,52.3,29.56,ENE,68,4.0,4.0,94,0.00,,,0.00,VWS V14.01,2013-10-11 11:07:00,
2013-10-11 07:13:00,54.0,52.0,29.56,ENE,68,3.6,3.6,93,0.00,,,0.00,VWS V14.01,2013-10-11 11:13:00,
2013-10-11 07:18:00,53.8,51.8,29.56,East,90,5.6,5.6,93,0.00,,,0.00,VWS V14.01,2013-10-11 11:18:00,
2013-10-11 07:23:00,53.8,51.8,29.56,ENE,68,5.8,5.8,93,0.00,,,0.00,VWS V14.01,2013-10-11 11:23:00,
2013-10-11 07:28:00,53.6,51.6,29.56,ENE,68,5.8,5.8,93,0.00,,,0.00,VWS V14.01,2013-10-11 11:28:00,
2013-10-11 07:33:00,53.6,51.6,29.56,NE,45,6.0,6.0,93,0.00,,,0.00,VWS V14.01,2013-10-11 11:33:00,
2013-10-11 07:38:00,53.6,51.6,29.56,NNE,22,4.3,4.3,93,0.00,,,0.00,VWS V14.01,2013-10-11 11:38:00,
2013-10-11 07:43:00,53.6,51.6,29.56,NE,45,4.3,4.3,93,0.00,,,0.00,VWS V14.01,2013-10-11 11:43:00,
2013-10-11 07:48:00,53.6,51.6,29.56,NE,45,7.2,7.2,93,0.00,,,0.00,VWS V14.01,2013-10-11 11:48:00,
2013-10-11 07:53:00,53.4,51.5,29.56,NNE,22,5.4,5.4,93,0.00,,,0.00,VWS V14.01,2013-10-11 11:53:00,
2013-10-11 07:58:00,53.4,51.5,29.56,NNE,22,6.5,6.5,93,0.00,,,0.00,VWS V14.01,2013-10-11 11:58:00,
2013-10-11 08:03:00,53.4,51.5,29.56,NE,45,6.0,6.0,93,0.00,,,0.00,VWS V14.01,2013-10-11 12:03:00,
2013-10-11 08:08:00,53.4,51.5,29.56,NE,45,4.9,4.9,93,0.00,,,0.00,VWS V14.01,2013-10-11 12:08:00,
2013-10-11 08:13:00,53.4,51.5,29.56,ENE,68,4.9,4.9,93,0.00,,,0.00,VWS V14.01,2013-10-11 12:13:00,
2013-10-11 08:18:00,53.4,51.5,29.56,NE,45,6.5,6.5,93,0.00,,,0.00,VWS V14.01,2013-10-11 12:18:00,
2013-10-11 08:23:00,53.4,51.5,29.56,NE,45,3.4,3.4,93,0.00,,,0.00,VWS V14.01,2013-10-11 12:23:00,
2013-10-11 08:28:00,53.4,51.5,29.56,ENE,68,4.9,4.9,93,0.00,,,0.00,VWS V14.01,2013-10-11 12:28:00,
2013-10-11 08:33:00,53.4,51.5,29.56,ENE,68,5.4,5.4,93,0.00,,,0.00,VWS V14.01,2013-10-11 12:33:00,
2013-10-11 08:38:00,53.6,51.6,29.56,ENE,68,4.3,4.3,93,0.00,,,0.00,VWS V14.01,2013-10-11 12:38:00,
2013-10-11 08:44:00,53.6,51.6,29.59,ENE,68,3.4,3.4,93,0.00,,,0.00,VWS V14.01,2013-10-11 12:44:00,
2013-10-11 08:49:00,53.8,51.8,29.59,NE,45,2.5,2.5,93,0.00,,,0.00,VWS V14.01,2013-10-11 12:49:00,
2013-10-11 08:54:00,53.8,52.1,29.59,NE,45,6.0,6.0,94,0.00,,,0.00,VWS V14.01,2013-10-11 12:54:00,
2013-10-11 08:59:00,54.0,52.0,29.59,NE,45,4.0,4.0,93,0.00,,,0.00,VWS V14.01,2013-10-11 12:59:00,
2013-10-11 09:04:00,54.0,52.0,29.59,ENE,68,7.2,7.2,93,0.00,,,0.00,VWS V14.01,2013-10-11 13:04:00,
2013-10-11 09:09:00,54.0,52.0,29.59,East,90,3.4,3.4,93,0.00,,,0.00,VWS V14.01,2013-10-11 13:09:00,
2013-10-11 09:14:00,54.1,52.2,29.59,ENE,68,2.9,2.9,93,0.00,,,0.00,VWS V14.01,2013-10-11 13:14:00,
2013-10-11 09:19:00,54.1,52.2,29.59,ENE,68,3.8,3.8,93,0.00,,,0.00,VWS V14.01,2013-10-11 13:19:00,
2013-10-11 09:24:00,54.3,52.3,29.59,NE,45,6.5,6.5,93,0.00,,,0.00,VWS V14.01,2013-10-11 13:24:00,
2013-10-11 09:29:00,54.3,52.3,29.59,NE,45,7.4,7.4,93,0.00,,,0.00,VWS V14.01,2013-10-11 13:29:00,
2013-10-11 09:34:00,54.1,52.2,29.59,NE,45,7.2,7.2,93,0.00,,,0.00,VWS V14.01,2013-10-11 13:34:00,
2013-10-11 09:39:00,54.1,52.2,29.59,ENE,68,3.1,3.1,93,0.00,,,0.00,VWS V14.01,2013-10-11 13:39:00,
2013-10-11 09:44:00,54.3,52.3,29.59,NE,45,3.6,3.6,93,0.00,,,0.00,VWS V14.01,2013-10-11 13:44:00,
2013-10-11 09:49:00,54.3,52.3,29.59,ENE,68,6.3,6.3,93,0.00,,,0.00,VWS V14.01,2013-10-11 13:49:00,
2013-10-11 09:54:00,54.5,52.5,29.59,ENE,68,5.4,5.4,93,0.00,,,0.00,VWS V14.01,2013-10-11 13:54:00,
2013-10-11 09:59:00,54.3,52.3,29.59,NNE,22,6.5,6.5,93,0.00,,,0.00,VWS V14.01,2013-10-11 13:59:00,
2013-10-11 10:04:00,54.3,52.3,29.59,NE,45,4.9,4.9,93,0.00,,,0.00,VWS V14.01,2013-10-11 14:04:00,
2013-10-11 10:09:00,54.3,52.3,29.59,NE,45,5.8,5.8,93,0.00,,,0.00,VWS V14.01,2013-10-11 14:09:00,
2013-10-11 10:14:00,54.5,52.5,29.59,NNE,22,6.3,6.3,93,0.00,,,0.00,VWS V14.01,2013-10-11 14:14:00,
2013-10-11 10:19:00,54.5,52.5,29.59,NNE,22,4.0,4.0,93,0.00,,,0.00,VWS V14.01,2013-10-11 14:19:00,
2013-10-11 10:24:00,54.7,52.7,29.59,NE,45,3.6,3.6,93,0.00,,,0.00,VWS V14.01,2013-10-11 14:24:00,
2013-10-11 10:29:00,54.7,52.7,29.59,ENE,68,4.7,4.7,93,0.00,,,0.00,VWS V14.01,2013-10-11 14:29:00,
2013-10-11 10:34:00,54.9,52.9,29.59,NE,45,5.4,5.4,93,0.00,,,0.00,VWS V14.01,2013-10-11 14:34:00,
2013-10-11 10:39:00,54.9,52.9,29.59,NE,45,5.6,5.6,93,0.00,,,0.00,VWS V14.01,2013-10-11 14:39:00,
2013-10-11 10:44:00,55.0,53.1,29.59,NE,45,4.3,4.3,93,0.00,,,0.00,VWS V14.01,2013-10-11 14:44:00,
2013-10-11 10:49:00,55.0,53.1,29.59,ENE,68,6.3,6.3,93,0.00,,,0.00,VWS V14.01,2013-10-11 14:49:00,
2013-10-11 10:54:00,55.2,53.2,29.59,NE,45,3.8,3.8,93,0.00,,,0.00,VWS V14.01,2013-10-11 14:54:00,
2013-10-11 10:59:00,55.4,53.4,29.56,NE,45,2.0,2.0,93,0.00,,,0.00,VWS V14.01,2013-10-11 14:59:00,
2013-10-11 11:04:00,55.6,53.6,29.56,ENE,68,3.1,3.1,93,0.00,,,0.00,VWS V14.01,2013-10-11 15:04:00,
2013-10-11 11:09:00,55.8,53.8,29.56,NE,45,3.1,3.1,93,0.00,,,0.00,VWS V14.01,2013-10-11 15:09:00,
2013-10-11 11:14:00,55.8,53.8,29.56,ENE,68,3.8,3.8,93,0.00,,,0.00,VWS V14.01,2013-10-11 15:14:00,
2013-10-11 11:19:00,55.9,54.0,29.56,ENE,68,3.1,3.1,93,0.00,,,0.00,VWS V14.01,2013-10-11 15:19:00,
2013-10-11 11:24:00,55.9,54.0,29.56,ENE,68,2.5,2.5,93,0.00,,,0.00,VWS V14.01,2013-10-11 15:24:00,
2013-10-11 11:29:00,56.1,54.4,29.56,ENE,68,2.7,2.7,94,0.00,,,0.00,VWS V14.01,2013-10-11 15:29:00,
2013-10-11 11:35:00,56.3,54.6,29.56,East,90,4.3,4.3,94,0.00,,,0.00,VWS V14.01,2013-10-11 15:35:00,
2013-10-11 11:40:00,56.3,54.6,29.56,ENE,68,3.1,3.1,94,0.00,,,0.00,VWS V14.01,2013-10-11 15:40:00,
2013-10-11 11:45:00,56.7,55.0,29.56,ENE,68,1.6,1.6,94,0.00,,,0.00,VWS V14.01,2013-10-11 15:45:00,
2013-10-11 11:50:00,56.7,55.0,29.56,ENE,68,2.5,2.5,94,0.00,,,0.00,VWS V14.01,2013-10-11 15:50:00,
2013-10-11 11:55:00,56.8,55.1,29.56,ENE,68,2.9,2.9,94,0.00,,,0.00,VWS V14.01,2013-10-11 15:55:00,
2013-10-11 12:00:00,57.0,55.3,29.59,ENE,68,1.6,1.6,94,0.00,,,0.00,VWS V14.01,2013-10-11 16:00:00,
2013-10-11 12:05:00,57.2,55.2,29.59,ENE,68,3.4,3.4,93,0.00,,,0.00,VWS V14.01,2013-10-11 16:05:00,
2013-10-11 12:10:00,57.2,55.2,29.59,ENE,68,3.8,3.8,93,0.00,,,0.00,VWS V14.01,2013-10-11 16:10:00,
2013-10-11 12:15:00,57.4,55.4,29.56,ENE,68,2.0,2.0,93,0.00,,,0.00,VWS V14.01,2013-10-11 16:15:00,
2013-10-11 12:20:00,57.4,55.4,29.56,NE,45,2.7,2.7,93,0.00,,,0.00,VWS V14.01,2013-10-11 16:20:00,
2013-10-11 12:25:00,57.6,55.6,29.56,NE,45,1.3,1.3,93,0.00,,,0.00,VWS V14.01,2013-10-11 16:25:00,
2013-10-11 12:30:00,57.7,55.7,29.56,ENE,68,2.9,2.9,93,0.00,,,0.00,VWS V14.01,2013-10-11 16:30:00,
2013-10-11 12:35:00,57.9,55.9,29.56,East,90,3.4,3.4,93,0.00,,,0.00,VWS V14.01,2013-10-11 16:35:00,
2013-10-11 12:40:00,58.1,56.1,29.56,East,90,3.4,3.4,93,0.00,,,0.00,VWS V14.01,2013-10-11 16:40:00,
2013-10-11 12:45:00,58.3,56.3,29.56,NE,45,2.0,2.0,93,0.00,,,0.00,VWS V14.01,2013-10-11 16:45:00,
2013-10-11 12:50:00,58.5,56.5,29.56,NE,45,2.7,2.7,93,0.00,,,0.00,VWS V14.01,2013-10-11 16:50:00,
2013-10-11 12:55:00,58.6,56.6,29.56,ESE,112,2.5,2.5,93,0.00,,,0.00,VWS V14.01,2013-10-11 16:55:00,
2013-10-11 13:00:00,58.8,56.8,29.56,ENE,68,3.4,3.4,93,0.00,,,0.00,VWS V14.01,2013-10-11 17:00:00,
2013-10-11 13:05:00,59.0,57.0,29.56,ENE,68,4.0,4.0,93,0.00,,,0.00,VWS V14.01,2013-10-11 17:05:00,
2013-10-11 13:11:00,59.4,57.0,29.56,NE,45,3.4,3.4,92,0.00,,,0.00,VWS V14.01,2013-10-11 17:11:00,
2013-10-11 13:16:00,59.5,57.5,29.56,NNE,22,5.4,5.4,93,0.00,,,0.00,VWS V14.01,2013-10-11 17:16:00,
2013-10-11 13:21:00,59.9,57.9,29.56,NE,45,4.9,4.9,93,0.00,,,0.00,VWS V14.01,2013-10-11 17:21:00,
2013-10-11 13:26:00,60.1,57.8,29.56,NE,45,1.1,1.1,92,0.00,,,0.00,VWS V14.01,2013-10-11 17:26:00,
2013-10-11 13:31:00,60.3,57.9,29.56,ENE,68,3.1,3.1,92,0.00,,,0.00,VWS V14.01,2013-10-11 17:31:00,
2013-10-11 13:36:00,60.4,57.8,29.56,ENE,68,1.6,1.6,91,0.00,,,0.00,VWS V14.01,2013-10-11 17:36:00,
2013-10-11 13:41:00,60.4,57.8,29.56,ENE,68,6.3,6.3,91,0.00,,,0.00,VWS V14.01,2013-10-11 17:41:00,
2013-10-11 13:46:00,60.6,57.7,29.56,NE,45,4.3,4.3,90,0.00,,,0.00,VWS V14.01,2013-10-11 17:46:00,
2013-10-11 13:51:00,61.0,57.7,29.56,NE,45,5.8,5.8,89,0.00,,,0.00,VWS V14.01,2013-10-11 17:51:00,
2013-10-11 13:56:00,61.2,57.9,29.56,NNE,22,5.6,5.6,89,0.00,,,0.00,VWS V14.01,2013-10-11 17:56:00,
2013-10-11 14:01:00,61.5,57.9,29.53,NE,45,7.8,7.8,88,0.00,,,0.00,VWS V14.01,2013-10-11 18:01:00,
2013-10-11 14:06:00,61.7,57.8,29.53,NE,45,6.0,6.0,87,0.00,,,0.00,VWS V14.01,2013-10-11 18:06:00,
2013-10-11 14:11:00,62.1,57.8,29.53,NE,45,5.6,5.6,86,0.00,,,0.00,VWS V14.01,2013-10-11 18:11:00,
2013-10-11 14:16:00,62.2,58.0,29.53,ENE,68,6.5,6.5,86,0.00,,,0.00,VWS V14.01,2013-10-11 18:16:00,
2013-10-11 14:21:00,62.6,58.0,29.53,NNE,22,3.6,3.6,85,0.00,,,0.00,VWS V14.01,2013-10-11 18:21:00,
2013-10-11 14:26:00,63.0,58.1,29.53,NE,45,6.0,6.0,84,0.00,,,0.00,VWS V14.01,2013-10-11 18:26:00,
2013-10-11 14:31:00,63.3,58.4,29.53,ENE,68,3.6,3.6,84,0.00,,,0.00,VWS V14.01,2013-10-11 18:31:00,
2013-10-11 14:37:00,63.7,58.4,29.53,NNE,22,6.5,6.5,83,0.00,,,0.00,VWS V14.01,2013-10-11 18:37:00,
2013-10-11 14:42:00,63.9,57.9,29.53,NNE,22,5.6,5.6,81,0.00,,,0.00,VWS V14.01,2013-10-11 18:42:00,
2013-10-11 14:47:00,63.9,57.6,29.53,NE,45,6.5,6.5,80,0.00,,,0.00,VWS V14.01,2013-10-11 18:47:00,
2013-10-11 14:52:00,64.0,57.8,29.53,NE,45,8.5,8.5,80,0.00,,,0.00,VWS V14.01,2013-10-11 18:52:00,
2013-10-11 14:57:00,64.2,57.6,29.53,NE,45,5.8,5.8,79,0.00,,,0.00,VWS V14.01,2013-10-11 18:57:00,
2013-10-11 15:02:00,64.0,57.4,29.50,NNE,22,5.6,5.6,79,0.00,,,0.00,VWS V14.01,2013-10-11 19:02:00,
2013-10-11 15:07:00,63.9,56.9,29.50,ENE,68,7.8,7.8,78,0.00,,,0.00,VWS V14.01,2013-10-11 19:07:00,
2013-10-11 15:12:00,63.9,56.5,29.50,NNE,22,4.0,4.0,77,0.00,,,0.00,VWS V14.01,2013-10-11 19:12:00,
2013-10-11 15:17:00,63.9,56.5,29.53,NE,45,6.0,6.0,77,0.00,,,0.00,VWS V14.01,2013-10-11 19:17:00,
2013-10-11 15:22:00,63.9,56.2,29.53,NE,45,4.7,4.7,76,0.00,,,0.00,VWS V14.01,2013-10-11 19:22:00,
2013-10-11 15:27:00,63.9,56.5,29.53,NNE,22,4.5,4.5,77,0.00,,,0.00,VWS V14.01,2013-10-11 19:27:00,
2013-10-11 15:32:00,63.9,56.5,29.50,NNE,22,3.1,3.1,77,0.00,,,0.00,VWS V14.01,2013-10-11 19:32:00,
2013-10-11 15:37:00,64.0,56.7,29.50,NNE,22,4.9,4.9,77,0.00,,,0.00,VWS V14.01,2013-10-11 19:37:00,
2013-10-11 15:42:00,64.0,56.7,29.50,NNE,22,4.9,4.9,77,0.00,,,0.00,VWS V14.01,2013-10-11 19:42:00,
2013-10-11 15:47:00,64.0,56.7,29.50,NNE,22,6.0,6.0,77,0.00,,,0.00,VWS V14.01,2013-10-11 19:47:00,
2013-10-11 15:53:00,64.2,56.5,29.50,NNE,22,3.1,3.1,76,0.00,,,0.00,VWS V14.01,2013-10-11 19:53:00,
2013-10-11 15:58:00,64.2,56.5,29.50,NNE,22,6.5,6.5,76,0.00,,,0.00,VWS V14.01,2013-10-11 19:58:00,
2013-10-11 16:03:00,64.2,56.1,29.50,NNE,22,7.6,7.6,75,0.00,,,0.00,VWS V14.01,2013-10-11 20:03:00,
2013-10-11 16:08:00,64.2,56.1,29.50,NNE,22,6.5,6.5,75,0.00,,,0.00,VWS V14.01,2013-10-11 20:08:00,
2013-10-11 16:13:00,64.4,55.9,29.50,NNE,22,5.8,5.8,74,0.00,,,0.00,VWS V14.01,2013-10-11 20:13:00,
2013-10-11 16:18:00,64.4,55.2,29.50,NNE,22,6.3,6.3,72,0.00,,,0.00,VWS V14.01,2013-10-11 20:18:00,
2013-10-11 16:23:00,64.4,55.2,29.50,NNE,22,6.5,6.5,72,0.00,,,0.00,VWS V14.01,2013-10-11 20:23:00,
2013-10-11 16:28:00,64.4,55.2,29.50,NNE,22,7.6,7.6,72,0.00,,,0.00,VWS V14.01,2013-10-11 20:28:00,
2013-10-11 16:33:00,64.4,54.8,29.50,NNE,22,5.4,5.4,71,0.00,,,0.00,VWS V14.01,2013-10-11 20:33:00,
2013-10-11 16:38:00,64.4,55.2,29.50,NNE,22,6.0,6.0,72,0.00,,,0.00,VWS V14.01,2013-10-11 20:38:00,
2013-10-11 16:43:00,64.4,54.8,29.50,NNE,22,8.1,8.1,71,0.00,,,0.00,VWS V14.01,2013-10-11 20:43:00,
2013-10-11 16:48:00,64.4,54.8,29.50,NNE,22,8.7,8.7,71,0.00,,,0.00,VWS V14.01,2013-10-11 20:48:00,
2013-10-11 16:53:00,64.4,54.8,29.50,NNE,22,7.2,7.2,71,0.00,,,0.00,VWS V14.01,2013-10-11 20:53:00,
2013-10-11 16:58:00,64.4,54.8,29.50,NNE,22,5.8,5.8,71,0.00,,,0.00,VWS V14.01,2013-10-11 20:58:00,
2013-10-11 17:03:00,64.2,54.6,29.50,NNE,22,4.7,4.7,71,0.00,,,0.00,VWS V14.01,2013-10-11 21:03:00,
2013-10-11 17:09:00,64.2,54.2,29.50,NNW,338,6.0,6.0,70,0.00,,,0.00,VWS V14.01,2013-10-11 21:09:00,
2013-10-11 17:14:00,64.2,54.2,29.50,NNE,22,6.0,6.0,70,0.00,,,0.00,VWS V14.01,2013-10-11 21:14:00,
2013-10-11 17:19:00,64.0,54.5,29.50,NNE,22,6.5,6.5,71,0.00,,,0.00,VWS V14.01,2013-10-11 21:19:00,
2013-10-11 17:24:00,64.0,54.1,29.50,NNE,22,4.5,4.5,70,0.00,,,0.00,VWS V14.01,2013-10-11 21:24:00,
2013-10-11 17:29:00,63.9,54.3,29.50,NE,45,6.5,6.5,71,0.00,,,0.00,VWS V14.01,2013-10-11 21:29:00,
2013-10-11 17:34:00,63.9,54.3,29.50,NNE,22,4.0,4.0,71,0.00,,,0.00,VWS V14.01,2013-10-11 21:34:00,
2013-10-11 17:39:00,63.9,54.3,29.50,NNE,22,3.1,3.1,71,0.00,,,0.00,VWS V14.01,2013-10-11 21:39:00,
2013-10-11 17:44:00,63.7,54.1,29.50,NNE,22,4.0,4.0,71,0.00,,,0.00,VWS V14.01,2013-10-11 21:44:00,
2013-10-11 17:49:00,63.7,54.1,29.50,NNE,22,4.0,4.0,71,0.00,,,0.00,VWS V14.01,2013-10-11 21:49:00,
2013-10-11 17:54:00,63.5,53.9,29.50,NNE,22,3.1,3.1,71,0.00,,,0.00,VWS V14.01,2013-10-11 21:54:00,
2013-10-11 17:59:00,63.5,53.9,29.53,NNE,22,4.0,4.0,71,0.00,,,0.00,VWS V14.01,2013-10-11 21:59:00,
2013-10-11 18:04:00,63.5,54.3,29.53,NNE,22,3.1,3.1,72,0.00,,,0.00,VWS V14.01,2013-10-11 22:04:00,
2013-10-11 18:09:00,63.3,54.2,29.53,NNW,338,1.6,1.6,72,0.00,,,0.00,VWS V14.01,2013-10-11 22:09:00,
2013-10-11 18:14:00,63.3,53.8,29.53,NNE,22,3.6,3.6,71,0.00,,,0.00,VWS V14.01,2013-10-11 22:14:00,
2013-10-11 18:19:00,63.3,53.4,29.53,North,0,2.7,2.7,70,0.00,,,0.00,VWS V14.01,2013-10-11 22:19:00,
2013-10-11 18:24:00,63.3,53.4,29.53,NNW,338,1.1,1.1,70,0.00,,,0.00,VWS V14.01,2013-10-11 22:24:00,
2013-10-11 18:29:00,63.3,53.0,29.56,NNE,22,1.1,1.1,69,0.00,,,0.00,VWS V14.01,2013-10-11 22:29:00,
2013-10-11 18:34:00,63.3,53.4,29.56,NNE,22,0.0,0.0,70,0.00,,,0.00,VWS V14.01,2013-10-11 22:34:00,
2013-10-11 18:40:00,63.1,54.0,29.56,NNE,22,0.0,0.0,72,0.00,,,0.00,VWS V14.01,2013-10-11 22:40:00,
2013-10-11 18:45:00,63.0,53.8,29.56,NNE,22,0.0,0.0,72,0.00,,,0.00,VWS V14.01,2013-10-11 22:45:00,
2013-10-11 18:50:00,62.8,54.0,29.56,ENE,68,0.0,0.0,73,0.00,,,0.00,VWS V14.01,2013-10-11 22:50:00,
2013-10-11 18:55:00,62.6,54.2,29.56,ENE,68,0.0,0.0,74,0.00,,,0.00,VWS V14.01,2013-10-11 22:55:00,
2013-10-11 19:00:00,62.6,54.6,29.56,ENE,68,0.0,0.0,75,0.00,,,0.00,VWS V14.01,2013-10-11 23:00:00,
2013-10-11 19:05:00,62.4,54.8,29.56,ENE,68,0.0,0.0,76,0.00,,,0.00,VWS V14.01,2013-10-11 23:05:00,
2013-10-11 19:10:00,62.4,54.4,29.56,ENE,68,3.6,3.6,75,0.00,,,0.00,VWS V14.01,2013-10-11 23:10:00,
2013-10-11 19:15:00,62.4,54.0,29.56,NE,45,1.3,1.3,74,0.00,,,0.00,VWS V14.01,2013-10-11 23:15:00,
2013-10-11 19:20:00,62.4,54.0,29.56,NE,45,3.4,3.4,74,0.00,,,0.00,VWS V14.01,2013-10-11 23:20:00,
2013-10-11 19:25:00,62.4,53.7,29.56,ENE,68,3.6,3.6,73,0.00,,,0.00,VWS V14.01,2013-10-11 23:25:00,
2013-10-11 19:30:00,62.6,53.5,29.56,ENE,68,2.7,2.7,72,0.00,,,0.00,VWS V14.01,2013-10-11 23:30:00,
2013-10-11 19:35:00,62.6,53.5,29.56,ESE,112,2.7,2.7,72,0.00,,,0.00,VWS V14.01,2013-10-11 23:35:00,
2013-10-11 19:40:00,62.6,53.8,29.56,NE,45,0.9,0.9,73,0.00,,,0.00,VWS V14.01,2013-10-11 23:40:00,
2013-10-11 19:45:00,62.4,54.4,29.56,ENE,68,2.0,2.0,75,0.00,,,0.00,VWS V14.01,2013-10-11 23:45:00,
2013-10-11 19:51:00,62.2,53.9,29.56,NE,45,2.9,2.9,74,0.00,,,0.00,VWS V14.01,2013-10-11 23:51:00,
2013-10-11 19:56:00,62.2,53.5,29.56,ENE,68,3.1,3.1,73,0.00,,,0.00,VWS V14.01,2013-10-11 23:56:00,
2013-10-11 20:01:00,62.1,52.9,29.53,NE,45,3.6,3.6,72,0.00,,,0.00,VWS V14.01,2013-10-12 00:01:00,
2013-10-11 20:06:00,61.9,52.8,29.53,ENE,68,4.3,4.3,72,0.00,,,0.00,VWS V14.01,2013-10-12 00:06:00,
2013-10-11 20:11:00,62.2,52.0,29.53,NE,45,5.6,5.6,69,0.00,,,0.00,VWS V14.01,2013-10-12 00:11:00,
2013-10-11 20:16:00,62.2,51.6,29.56,ENE,68,2.5,2.5,68,0.00,,,0.00,VWS V14.01,2013-10-12 00:16:00,
2013-10-11 20:21:00,62.2,51.2,29.56,NE,45,3.4,3.4,67,0.00,,,0.00,VWS V14.01,2013-10-12 00:21:00,
2013-10-11 20:26:00,62.2,51.6,29.56,NE,45,2.9,2.9,68,0.00,,,0.00,VWS V14.01,2013-10-12 00:26:00,
2013-10-11 20:31:00,62.4,51.7,29.56,NE,45,1.6,1.6,68,0.00,,,0.00,VWS V14.01,2013-10-12 00:31:00,
2013-10-11 20:36:00,62.2,51.6,29.56,ENE,68,2.7,2.7,68,0.00,,,0.00,VWS V14.01,2013-10-12 00:36:00,
2013-10-11 20:41:00,62.2,52.0,29.56,East,90,2.2,2.2,69,0.00,,,0.00,VWS V14.01,2013-10-12 00:41:00,
2013-10-11 20:46:00,62.1,52.2,29.56,ESE,112,2.0,2.0,70,0.00,,,0.00,VWS V14.01,2013-10-12 00:46:00,
2013-10-11 20:51:00,61.9,52.0,29.56,ENE,68,1.3,1.3,70,0.00,,,0.00,VWS V14.01,2013-10-12 00:51:00,
2013-10-11 20:56:00,61.9,52.0,29.56,NE,45,2.5,2.5,70,0.00,,,0.00,VWS V14.01,2013-10-12 00:56:00,
2013-10-11 21:01:00,61.9,51.6,29.56,NNE,22,2.9,2.9,69,0.00,,,0.00,VWS V14.01,2013-10-12 01:01:00,
2013-10-11 21:07:00,61.9,52.0,29.56,NE,45,1.6,1.6,70,0.00,,,0.00,VWS V14.01,2013-10-12 01:07:00,
2013-10-11 21:11:00,61.9,52.4,29.56,ENE,68,2.0,2.0,71,0.00,,,0.00,VWS V14.01,2013-10-12 01:11:00,
2013-10-11 21:17:00,61.7,52.2,29.59,NE,45,4.0,4.0,71,0.00,,,0.00,VWS V14.01,2013-10-12 01:17:00,
2013-10-11 21:22:00,61.7,51.4,29.59,NE,45,2.7,2.7,69,0.00,,,0.00,VWS V14.01,2013-10-12 01:22:00,
2013-10-11 21:27:00,61.7,51.8,29.59,NE,45,3.4,3.4,70,0.00,,,0.00,VWS V14.01,2013-10-12 01:27:00,
2013-10-11 21:32:00,61.9,50.8,29.56,NE,45,3.4,3.4,67,0.00,,,0.00,VWS V14.01,2013-10-12 01:32:00,
2013-10-11 21:37:00,61.9,51.2,29.56,NE,45,3.1,3.1,68,0.00,,,0.00,VWS V14.01,2013-10-12 01:37:00,
2013-10-11 21:42:00,61.9,51.2,29.56,NE,45,3.6,3.6,68,0.00,,,0.00,VWS V14.01,2013-10-12 01:42:00,
2013-10-11 21:47:00,61.9,50.8,29.59,NE,45,2.5,2.5,67,0.00,,,0.00,VWS V14.01,2013-10-12 01:47:00,
2013-10-11 21:52:00,61.9,50.8,29.59,NNE,22,3.8,3.8,67,0.00,,,0.00,VWS V14.01,2013-10-12 01:52:00,
2013-10-11 21:57:00,61.9,50.8,29.59,NNE,22,3.4,3.4,67,0.00,,,0.00,VWS V14.01,2013-10-12 01:57:00,
2013-10-11 22:03:00,61.9,50.4,29.56,NE,45,1.1,1.1,66,0.00,,,0.00,VWS V14.01,2013-10-12 02:03:00,
2013-10-11 22:08:00,62.1,50.6,29.56,ENE,68,3.6,3.6,66,0.00,,,0.00,VWS V14.01,2013-10-12 02:08:00,
2013-10-11 22:13:00,62.2,50.8,29.56,ENE,68,3.4,3.4,66,0.00,,,0.00,VWS V14.01,2013-10-12 02:13:00,
2013-10-11 22:18:00,62.2,51.2,29.59,ENE,68,2.9,2.9,67,0.00,,,0.00,VWS V14.01,2013-10-12 02:18:00,
2013-10-11 22:23:00,62.2,52.0,29.59,NE,45,3.6,3.6,69,0.00,,,0.00,VWS V14.01,2013-10-12 02:23:00,
2013-10-11 22:28:00,62.2,52.0,29.59,NE,45,2.5,2.5,69,0.00,,,0.00,VWS V14.01,2013-10-12 02:28:00,
2013-10-11 22:33:00,62.2,52.0,29.59,NE,45,4.0,4.0,69,0.00,,,0.00,VWS V14.01,2013-10-12 02:33:00,
2013-10-11 22:38:00,62.4,51.7,29.59,NNE,22,1.3,1.3,68,0.00,,,0.00,VWS V14.01,2013-10-12 02:38:00,
2013-10-11 22:43:00,62.4,51.3,29.59,NNW,338,1.1,1.1,67,0.00,,,0.00,VWS V14.01,2013-10-12 02:43:00,
2013-10-11 22:48:00,62.2,51.6,29.59,NNE,22,3.6,3.6,68,0.00,,,0.00,VWS V14.01,2013-10-12 02:48:00,
2013-10-11 22:53:00,62.1,50.6,29.59,North,0,2.5,2.5,66,0.00,,,0.00,VWS V14.01,2013-10-12 02:53:00,
2013-10-11 22:58:00,62.1,51.0,29.56,NNE,22,3.1,3.1,67,0.00,,,0.00,VWS V14.01,2013-10-12 02:58:00,
2013-10-11 23:03:00,62.1,51.0,29.56,NNE,22,2.0,2.0,67,0.00,,,0.00,VWS V14.01,2013-10-12 03:03:00,
2013-10-11 23:08:00,61.9,51.2,29.56,NE,45,0.0,0.0,68,0.00,,,0.00,VWS V14.01,2013-10-12 03:08:00,
2013-10-11 23:13:00,61.9,51.6,29.59,NNE,22,1.3,1.3,69,0.00,,,0.00,VWS V14.01,2013-10-12 03:13:00,
2013-10-11 23:18:00,61.9,52.0,29.59,NNE,22,1.1,1.1,70,0.00,,,0.00,VWS V14.01,2013-10-12 03:18:00,
2013-10-11 23:23:00,61.9,52.0,29.59,NNE,22,0.0,0.0,70,0.00,,,0.00,VWS V14.01,2013-10-12 03:23:00,
2013-10-11 23:28:00,61.9,52.0,29.56,NNE,22,1.3,1.3,70,0.00,,,0.00,VWS V14.01,2013-10-12 03:28:00,
2013-10-11 23:33:00,61.7,51.8,29.56,NNE,22,0.0,0.0,70,0.00,,,0.00,VWS V14.01,2013-10-12 03:33:00,
2013-10-11 23:38:00,61.7,52.2,29.56,NE,45,0.0,0.0,71,0.00,,,0.00,VWS V14.01,2013-10-12 03:38:00,
2013-10-11 23:43:00,61.5,52.4,29.56,ENE,68,0.0,0.0,72,0.00,,,0.00,VWS V14.01,2013-10-12 03:43:00,
2013-10-11 23:48:00,61.5,52.4,29.56,ENE,68,0.0,0.0,72,0.00,,,0.00,VWS V14.01,2013-10-12 03:48:00,
2013-10-11 23:53:00,61.3,52.2,29.56,ENE,68,0.0,0.0,72,0.00,,,0.00,VWS V14.01,2013-10-12 03:53:00,
2013-10-11 23:58:00,61.3,52.6,29.56,ENE,68,0.0,0.0,73,0.00,,,0.00,VWS V14.01,2013-10-12 03:58:00,